Portada
METAR-TAF:

METAR-TAF

Aeropuertos :

Valencia, España

Helipuerto Bétera-Valencia

latitud: 39-37-26N, longitud: 0-28-26W, altitud: 127 m

Observación

El informe se hizo hace 36 minutos, a las 16:00 UTC
Viento 7 kt del este, variando entre norte-noreste y sur-sureste
Temperatura 24°C
Humedad 69%
Presión 1018 hPa
Visibilidad 10 km o más

METAR: LEBT 201600Z AUTO 10007KT 030V150 9999 // NCD 24/18 Q1018

Hora: 18:36 (16:36 UTC)


TAF: falta

Observaciones y pronósticos meteorológicos de más de 4000 aeropuertos (mensajes METAR y TAF).

Los puntos amarillos y rojos representan las estaciones disponibles.

Ponga el ratón en el punto deseado para ver el nombre de la estación.

Haga clic para ver las observaciones y los pronósticos meteorológicos.

Para cambiar el mapa : haga clic en los botones verdes con una cruz de color negro para hacer un zoom, en el botón verde con un guión para alejar o en las flechas verdes para mapas adyacentes.


METAR-TAF: